{"data":{"norad_id":60732,"intl_designator":"2024-152N","name":"STARLINK-11266 [DTC]","alt_names":[],"object_type":"PAYLOAD","status":"ACTIVE","operator":null,"country":"US","launch_date":"2024-08-28","launch_site_code":"AFETR","launch_vehicle":null,"mission":null,"orbit_class":"UNKNOWN","rcs_meters":null,"size_class":null,"mass_kg":null,"dimensions":null,"purposes":["comms"],"wikipedia_slug":null,"has_3d_model":false,"image_url":null,"decayed_at":null,"tle_current":{"epoch":"2026-09-21T05:47:34.150272Z","epoch_age_seconds":124372,"freshness":"FRESH","line1":"1 60732U 24152N   26264.24136748 -.00001181  00000+0 -48863-5 0  9993","line2":"2 60732  53.1590 231.8780 0001166  85.0624 275.0527 15.69711758119550","mean_motion":15.69711758,"eccentricity":0.0001166,"inclination_deg":53.159,"raan_deg":231.878,"arg_perigee_deg":85.0624,"mean_anomaly_deg":275.0527,"bstar":-4.8863e-6,"rev_number":11955,"period_min":91.736587476081,"perigee_km":358.93608537468,"apogee_km":360.50735402812,"semimajor_km":6737.8587197014,"source":"CELESTRAK","updated_at":"2026-09-22T09:00:49.279831Z"}}}